Location: Härggis
(46.9540°N, 8.4897°E)
Time: 21:57:24
(UTC+00:00)

Cosmos 1624 Rocket - Pass Details

Date: 27 May 2022
Orbit: 757 x 782 km, 74.0° (Epoch: 03 July)

Event Time Altitude Azimuth Distance (km) Brightness Sun altitude
Exits shadow 02:46:22 - 192° (SSW) 2,865 6.5 -7.9°
Reaches altitude 10° 02:47:45 10° 191° (S) 2,328 6.0 -7.7°
Maximum altitude 02:53:01 71° 109° (ESE) 826 4.3 -7.0°
Drops below altitude 10° 02:58:17 10° 26° (NNE) 2,332 7.8 -6.4°
Sets 03:00:40 0° 24° (NNE) 3,260 8.6 -6.0°
